[Iaude] MPEC M58: TWO NEW TNOS

mpec at cfa.harvard.edu mpec at cfa.harvard.edu
Wed Jun 26 21:24:28 EDT 2024


M.P.E.C. 2024-M58                                 Issued 2024 June 27, 01:22 UT

     The Minor Planet Electronic Circulars contain information on unusual
         minor planets, routine data on comets and natural satellites,
         and occasional editorial announcements.  They are published
    on behalf of Division F of the International Astronomical Union by the
          Minor Planet Center, Smithsonian Astrophysical Observatory,
                          Cambridge, MA 02138, U.S.A.
			  
             Prepared using the Tamkin Foundation Computer Network

                              MPC at CFA.HARVARD.EDU
            URL https://www.minorplanetcenter.net/    ISSN 1523-6714

                                  TWO NEW TNOS                                  


Observations:
     K17BO1C 1C2015 03 22.40025709 16 57.90 +02 00 11.8                WEM058T09
     K17BO1C 1C2015 03 22.45354209 16 57.72 +02 00 13.4                WEM058T09
     K17BO1C 1C2016 04 04.26811609 24 03.98 +01 29 04.4                WEM058T09
     K17BO1C 1C2016 11 28.62239809 39 40.55 +00 19 41.7                WEM058T09
     K17BO1C 1C2016 12 25.48331409 38 54.57 +00 14 15.1                WEM058T09
     K17BO1C*4C2017 01 21.36859 09 37 08.23 +00 16 58.6          24.5 z1EM058T09
     K17BO1C 4C2017 01 21.37198 09 37 08.22 +00 16 59.0          23.9 z1EM058T09
     K17BO1C 4C2017 01 21.38540 09 37 08.15 +00 16 58.8          24.7 z1EM058T09
     K17BO1C 4C2017 01 21.39346 09 37 08.10 +00 16 59.5          24.7 z1EM058T09
     K17BO1C 4C2017 01 21.40419 09 37 08.04 +00 16 59.3          24.3 z1EM058T09
     K17BO1C 4C2017 01 21.41223 09 37 08.01 +00 16 59.5          24.1 z1EM058T09
     K17BO1C 4C2017 02 01.47870 09 36 13.55 +00 20 18.6          23.9 i1EM058T09
     K17BO1C 4C2017 02 01.51446 09 36 13.36 +00 20 19.6          23.9 i1EM058T09
     K17BO1C 4C2017 02 01.51997 09 36 13.34 +00 20 19.4          23.9 i1EM058T09
     K17BO1C 4C2017 02 01.55545 09 36 13.15 +00 20 20.1          24.1 i1EM058T09
     K17BO1C 4C2017 02 01.62394 09 36 12.80 +00 20 21.7          24.3 i1EM058T09
     K17BO1C 4C2017 02 01.62661 09 36 12.79 +00 20 21.7          23.9 i1EM058T09
     K17BO1C 1C2017 03 04.38578009 33 38.33 +00 34 22.5                WEM058T09
     K17BO1C 1C2017 03 04.38847009 33 38.32 +00 34 22.6                WEM058T09
     K19C31B*4C2019 02 05.55837 12 19 47.76 +03 03 29.4          24.1 i1EM058T09
     K19C31B 4C2019 02 05.60340 12 19 47.63 +03 03 30.7          23.7 i1EM058T09
     K19C31B 4C2019 02 05.63031 12 19 47.53 +03 03 31.0          23.9 i1EM058T09
     K19C31B 1C2019 02 28.58112112 18 27.06 +03 13 37.3                WEM058T09
     K19C31B 4C2019 03 03.58484 12 18 14.42 +03 15 05.9          23.6 z1EM058T09
     K19C31B 4C2019 03 03.58751 12 18 14.44 +03 15 05.7          23.5 z1EM058T09
     K19C31B 4C2019 03 03.62510 12 18 14.26 +03 15 06.7          23.7 z1EM058T09
     K19C31B 4C2019 03 03.64387 12 18 14.17 +03 15 07.4          23.8 z1EM058T09
     K19C31B 1C2019 04 04.45229012 15 48.25 +03 30 41.0                WEM058T09
     K19C31B 1C2019 04 04.47411212 15 48.14 +03 30 41.3                WEM058T09
     K19C31B 1C2019 04 06.30902012 15 39.73 +03 31 31.3                WEM058T09
     K19C31B 1C2020 01 28.55536912 25 22.24 +02 19 16.9                WEM058T09
     K19C31B 1C2020 01 30.60917012 25 18.01 +02 19 55.6                WEM058T09
     K19C31B 1C2020 01 30.66346012 25 17.88 +02 19 56.5                WEM058T09

Observer details:
T09 Subaru Telescope, Maunakea.  Observers , H. Aihara, Y. AlSayyad, M. Ando,
    R. Armstrong, J. Bosch, E. Egami, H. Furusawa, J. Furusawa, S. Harasawa,
    Y. Harikane, B.-C. Hsieh, H. Ikeda, K. Ito, I. Iwata, T. Kodama, M. Koike,
    M. Kokubo, Y. Komiyama, X. Li, Y. Liang, Y.-T. Lin, R. H. Lupton, N. B.
    Lust, L. A. MacArthur, K. Mawatari, S. Mineo, H. Miyatake, S. Miyazaki, S.
    More, T. Morishima, H. Murayama, K. Nakajima, F. Nakata, A. J. Nishizawa,
    M. Oguri, N. Okabe, Y. Okura, Y. Ono, K. Osato, M. Ouchi, Y.-C. Pan, A. A.
    Plazas Malagon, P. A. Price, S. L. Reed, E. S. Rykoff, T. Shibuya, M.
    Simunovic, M. A. Strauss, K. Sugimori, Y. Suto, N. Suzuki, M. Takada, Y.
    Takagi, T. Takata, S. Takita, M. Tanaka, S. Tang, D. S. Taranu, T. Terai,
    Y. Toba, E. L. Turner, H. Uchiyama, B. Vijarnwannaluk, C. Z. Waters, Y.
    Yamada, N. Yamamoto, T. Yamashita.  Measurers S. Deen, A. Yamauchi.  8.3-m
    Subaru Telescope + CCD, 8.2-m f/2.0 reflector + CCD(HSC).

Orbital elements:
2017 BC241                                                                      
Epoch 2024 Mar. 31.0 TT = JDT 2460400.5                 Alexandersen            
M  13.23927              (2000.0)            P               Q                  
n   0.00175206     Peri.  246.19942     -0.44782161     -0.87689684             
a  68.1454870      Node   231.56685     +0.87985373     -0.39742451             
e   0.4870357      Incl.   12.88389     +0.15910128     -0.27038064             
P 563              H    8.90          G   0.15           U   6                  
Residuals in seconds of arc
K153M  T09  0.0   0.0     K171L  T09  0.1+  0.3-    K1721  T09  0.1-  0.0  
K153M  T09  0.0   0.1-    K171L  T09  0.0   0.3+    K1721  T09  0.1-  0.1+ 
K1644  T09  0.0   0.0     K171L  T09  0.2-  0.0     K1721  T09  0.0   0.0  
K16BS  T09  0.0   0.0     K171L  T09  0.0   0.0     K1734  T09  0.0   0.1- 
K16CP  T09  0.1+  0.1-    K1721  T09  0.0   0.1+    K1734  T09  0.1+  0.1- 
K171L  T09  0.1+  0.2-    K1721  T09  0.1-  0.3+    
K171L  T09  0.2+  0.2+    K1721  T09  0.0   0.0     

2019 CB31                                                                       
Epoch 2024 Mar. 31.0 TT = JDT 2460400.5                 Alexandersen            
M 353.63564              (2000.0)            P               Q                  
n   0.00354481     Peri.  146.58116     -0.95475499     +0.28513556             
a  42.5997464      Node    50.21844     -0.29122553     -0.83884642             
e   0.0592057      Incl.    6.31294     -0.06025452     -0.46371801             
P 278              H    8.02          G   0.15           U   8                  
Residuals in seconds of arc
K1925  T09  0.1+  0.1-    K1933  T09  0.4+  0.1+    K1946  T09  0.0   0.1+ 
K1925  T09  0.1+  0.1+    K1933  T09  0.1+  0.0     K201S  T09  0.0   0.0  
K1925  T09  0.3-  0.2-    K1933  T09  0.1-  0.1+    K201U  T09  0.0   0.1+ 
K192S  T09  0.1+  0.1-    K1944  T09  0.1-  0.1-    K201U  T09  0.1-  0.1- 
K1933  T09  0.1-  0.4+    K1944  T09  0.2-  0.4-    


M. P. C. Staff               (C) Copyright 2024 MPC           M.P.E.C. 2024-M58





More information about the Iaude mailing list